Location: Newark
(51.0000°N, 11.4100°E)
Time: 05:55:48
(UTC+00:00)

N. Korean satellite - Pass Details

Date: 30 October 2019
Orbit: 456 x 506 km, 97.2° (Epoch: 14 November)

Event Time Altitude Azimuth Distance (km) Brightness Sun altitude
Rises 05:12:09 0° 14° (NNE) 2,591 10.3 -8.4°
Reaches altitude 10° 05:14:14 10° 16° (NNE) 1,710 9.4 -8.1°
Maximum altitude 05:17:56 74° 102° (ESE) 527 6.9 -7.5°
Drops below altitude 10° 05:21:37 10° 188° (S) 1,713 9.4 -7.0°
Sets 05:23:42 0° 190° (S) 2,596 10.3 -6.6°
